• In Hungary
  • List of Countries
  • For 7 days
  • Water Temperature
  • Satellite Maps
  • Weather Map
  • News
  • Weather Widgets
  • user-avatar
    Login

    Hourly Weather Fellbach

    Today, 19 October, Friday

    Time Temperature Precipitation Wind Pressure Humidity
    00:00 +12°C° 0 mm 2 mps 737 mmHg 94%
    01:00 +12°C° 0 mm 1 mps 737 mmHg 95%
    02:00 +11°C° 0 mm 1 mps 737 mmHg 96%
    03:00 +11°C° 0 mm 1 mps 737 mmHg 96%
    04:00 +10°C° 0 mm 1 mps 737 mmHg 96%
    05:00 +10°C° 0 mm 1 mps 737 mmHg 96%
    06:00 +10°C° 0 mm 1 mps 737 mmHg 96%
    07:00 +10°C° 0 mm 1 mps 737 mmHg 96%
    08:00 +11°C° 0 mm 1 mps 737 mmHg 89%
    09:00 +13°C° 0 mm 1 mps 737 mmHg 82%
    10:00 +15°C° 0 mm 2 mps 738 mmHg 75%
    11:00 +17°C° 0 mm 2 mps 738 mmHg 70%
    12:00 +18°C° 0 mm 2 mps 738 mmHg 65%
    13:00 +19°C° 0 mm 2 mps 738 mmHg 60%
    14:00 +19°C° 0 mm 2 mps 738 mmHg 61%
    15:00 +19°C° 0 mm 2 mps 737 mmHg 63%
    16:00 +19°C° 0 mm 2 mps 737 mmHg 64%
    17:00 +17°C° 0 mm 2 mps 738 mmHg 71%
    18:00 +15°C° 0 mm 1 mps 738 mmHg 79%
    19:00 +13°C° 0 mm 1 mps 738 mmHg 86%
    20:00 +13°C° 0 mm 1 mps 738 mmHg 87%
    21:00 +12°C° 0 mm 1 mps 739 mmHg 89%
    22:00 +12°C° 0 mm 1 mps 739 mmHg 91%
    23:00 +11°C° 0 mm 1 mps 739 mmHg 91%

    Tomorrow, 20 October, Saturday

    Time Temperature Precipitation Wind Pressure Humidity
    00:00 +11°C° 0 mm 1 mps 739 mmHg 92%
    01:00 +11°C° 0 mm 1 mps 739 mmHg 92%
    02:00 +10°C° 0 mm 1 mps 740 mmHg 93%
    03:00 +10°C° 0 mm 1 mps 740 mmHg 93%
    04:00 +10°C° 0 mm 1 mps 740 mmHg 93%
    05:00 +10°C° 0 mm 1 mps 740 mmHg 94%
    06:00 +8°C° 0 mm 0 mps 740 mmHg 94%
    07:00 +8°C° 0 mm 0 mps 741 mmHg 94%
    08:00 +11°C° 0 mm 1 mps 741 mmHg 88%
    09:00 +13°C° 0 mm 1 mps 742 mmHg 82%
    10:00 +15°C° 0 mm 2 mps 742 mmHg 76%
    11:00 +16°C° 0 mm 2 mps 742 mmHg 72%
    12:00 +17°C° 0 mm 2 mps 742 mmHg 68%
    13:00 +17°C° 0 mm 2 mps 742 mmHg 64%
    14:00 +17°C° 0 mm 2 mps 742 mmHg 64%
    15:00 +17°C° 0 mm 2 mps 742 mmHg 64%
    16:00 +17°C° 0 mm 2 mps 742 mmHg 64%
    17:00 +15°C° 0 mm 1 mps 742 mmHg 70%
    18:00 +13°C° 0 mm 1 mps 742 mmHg 75%
    19:00 +11°C° 0 mm 1 mps 742 mmHg 81%
    20:00 +11°C° 0 mm 1 mps 743 mmHg 82%
    21:00 +10°C° 0 mm 1 mps 743 mmHg 84%
    22:00 +9°C° 0 mm 1 mps 743 mmHg 85%
    23:00 +9°C° 0 mm 1 mps 743 mmHg 86%

    Day after tomorrow, 21 October, Sunday

    Time Temperature Precipitation Wind Pressure Humidity
    00:00 +9°C° 0 mm 1 mps 743 mmHg 87%
    01:00 +8°C° 0 mm 1 mps 742 mmHg 88%
    02:00 +8°C° 0 mm 1 mps 742 mmHg 89%
    03:00 +8°C° 0 mm 1 mps 742 mmHg 90%
    04:00 +8°C° 0 mm 1 mps 742 mmHg 90%
    05:00 +7°C° 0 mm 1 mps 742 mmHg 91%
    06:00 +7°C° 0 mm 1 mps 742 mmHg 91%
    07:00 +7°C° 0 mm 1 mps 742 mmHg 92%
    08:00 +9°C° 0 mm 1 mps 742 mmHg 83%
    09:00 +11°C° 0 mm 1 mps 742 mmHg 75%
    10:00 +14°C° 0 mm 1 mps 742 mmHg 67%
    11:00 +15°C° 0 mm 1 mps 742 mmHg 61%
    12:00 +16°C° 0 mm 1 mps 741 mmHg 55%
    13:00 +19°C° 0 mm 1 mps 741 mmHg 49%
    14:00 +18°C° 0 mm 1 mps 741 mmHg 51%
    15:00 +18°C° 0 mm 1 mps 740 mmHg 52%
    16:00 +18°C° 0 mm 1 mps 740 mmHg 54%
    17:00 +15°C° 0 mm 1 mps 740 mmHg 60%
    18:00 +13°C° 0 mm 1 mps 740 mmHg 65%
    19:00 +11°C° 0 mm 1 mps 740 mmHg 70%
    20:00 +10°C° 0 mm 1 mps 740 mmHg 72%
    21:00 +8°C° 0 mm 0 mps 740 mmHg 74%
    22:00 +8°C° 0 mm 0 mps 740 mmHg 75%
    23:00 +8°C° 0 mm 0 mps 740 mmHg 76%

    22 October, Monday

    Time Temperature Precipitation Wind Pressure Humidity
    00:00 +7°C° 0 mm 0 mps 740 mmHg 78%
    01:00 +7°C° 0 mm 0 mps 740 mmHg 79%
    02:00 +7°C° 0 mm 0 mps 740 mmHg 80%
    03:00 +6°C° 0 mm 0 mps 740 mmHg 80%
    04:00 +6°C° 0 mm 0 mps 740 mmHg 81%
    05:00 +6°C° 0 mm 0 mps 740 mmHg 82%
    06:00 +6°C° 0 mm 0 mps 740 mmHg 83%
    07:00 +5°C° 0 mm 0 mps 740 mmHg 84%
    08:00 +8°C° 0 mm 1 mps 740 mmHg 75%
    09:00 +11°C° 0 mm 1 mps 741 mmHg 67%
    10:00 +13°C° 0 mm 1 mps 741 mmHg 58%
    11:00 +14°C° 0 mm 2 mps 741 mmHg 56%
    12:00 +15°C° 0 mm 2 mps 741 mmHg 54%
    13:00 +16°C° 0 mm 3 mps 741 mmHg 52%
    14:00 +14°C° 0.1 mm 3 mps 741 mmHg 59%
    15:00 +13°C° 0.1 mm 3 mps 741 mmHg 66%
    16:00 +12°C° 0.1 mm 4 mps 741 mmHg 74%
    17:00 +11°C° 0.3 mm 4 mps 742 mmHg 79%
    18:00 +10°C° 0.3 mm 4 mps 742 mmHg 85%
    19:00 +9°C° 0.3 mm 3 mps 743 mmHg 90%
    20:00 +8°C° 0.1 mm 3 mps 743 mmHg 89%
    21:00 +7°C° 0.1 mm 3 mps 743 mmHg 88%
    22:00 +7°C° 0.1 mm 3 mps 744 mmHg 86%
    23:00 +6°C° 0 mm 2 mps 744 mmHg 88%

    23 October, Tuesday

    Time Temperature Precipitation Wind Pressure Humidity
    00:00 +5°C° 0 mm 2 mps 744 mmHg 89%
    01:00 +4°C° 0 mm 2 mps 744 mmHg 90%
    02:00 +4°C° 0 mm 2 mps 744 mmHg 90%
    03:00 +5°C° 0 mm 1 mps 744 mmHg 91%
    04:00 +5°C° 0 mm 1 mps 744 mmHg 91%
    05:00 +4°C° 0 mm 1 mps 744 mmHg 92%
    06:00 +4°C° 0 mm 1 mps 744 mmHg 92%
    07:00 +4°C° 0 mm 1 mps 744 mmHg 93%
    08:00 +5°C° 0 mm 1 mps 744 mmHg 87%
    09:00 +7°C° 0 mm 1 mps 744 mmHg 80%
    10:00 +7°C° 0 mm 2 mps 744 mmHg 74%
    11:00 +8°C° 0 mm 2 mps 744 mmHg 69%
    12:00 +9°C° 0 mm 3 mps 743 mmHg 64%
    13:00 +9°C° 0 mm 3 mps 743 mmHg 59%
    14:00 +9°C° 0.2 mm 3 mps 743 mmHg 65%
    15:00 +7°C° 0.2 mm 4 mps 742 mmHg 71%
    16:00 +7°C° 0.2 mm 4 mps 742 mmHg 76%
    17:00 +6°C° 0.5 mm 4 mps 742 mmHg 81%
    18:00 +7°C° 0.5 mm 3 mps 742 mmHg 86%
    19:00 +7°C° 0.5 mm 3 mps 742 mmHg 91%
    20:00 +7°C° 0.8 mm 3 mps 742 mmHg 92%
    21:00 +7°C° 0.8 mm 3 mps 742 mmHg 94%
    22:00 +7°C° 0.8 mm 3 mps 742 mmHg 95%
    23:00 +7°C° 0.7 mm 3 mps 742 mmHg 95%

    24 October, Wednesday

    Time Temperature Precipitation Wind Pressure Humidity
    00:00 +8°C° 0.7 mm 3 mps 741 mmHg 95%
    01:00 +8°C° 0.7 mm 3 mps 741 mmHg 95%
    02:00 +7°C° 0.7 mm 4 mps 741 mmHg 95%
    03:00 +7°C° 0.7 mm 4 mps 741 mmHg 94%
    04:00 +8°C° 0.7 mm 4 mps 741 mmHg 94%
    05:00 +8°C° 0.5 mm 4 mps 741 mmHg 94%
    06:00 +8°C° 0.5 mm 5 mps 741 mmHg 94%
    07:00 +8°C° 0.5 mm 5 mps 740 mmHg 94%
    08:00 +8°C° 0.6 mm 5 mps 741 mmHg 94%
    09:00 +8°C° 0.6 mm 5 mps 741 mmHg 94%
    10:00 +8°C° 0.6 mm 5 mps 741 mmHg 94%
    11:00 +9°C° 0.3 mm 5 mps 741 mmHg 93%
    12:00 +9°C° 0.3 mm 5 mps 741 mmHg 93%
    13:00 +9°C° 0.3 mm 5 mps 741 mmHg 92%
    14:00 +9°C° 0.2 mm 5 mps 741 mmHg 93%
    15:00 +9°C° 0.2 mm 5 mps 741 mmHg 93%
    16:00 +9°C° 0.2 mm 5 mps 741 mmHg 94%
    17:00 +11°C° 0.2 mm 4 mps 741 mmHg 94%
    18:00 +11°C° 0.2 mm 4 mps 741 mmHg 94%
    19:00 +11°C° 0.2 mm 4 mps 741 mmHg 94%
    20:00 +11°C° 0.1 mm 4 mps 741 mmHg 95%
    21:00 +11°C° 0.1 mm 4 mps 742 mmHg 95%
    22:00 +11°C° 0.1 mm 4 mps 742 mmHg 95%
    23:00 +11°C° 0.1 mm 3 mps 742 mmHg 95%
    Show more